This is the latest recevied weather packets stored in our database for station/object WA1TYB-13. If no packets are shown the sender has not sent any weather packets the latest 10 day(s).
| Time | Temp. | Humidity | Pressure | Rain* | Wind** | Luminosity | Snow |
|---|---|---|---|---|---|---|---|
| 1777908382 | 11.11° C | 44% | 1018 hPa | 0 mm | - | 446 W/m² | - |
| 1777908078 | 10.56° C | 48% | 1018 hPa | 0 mm | - | 269 W/m² | - |
| 1777907774 | 10.56° C | 47% | 1018.1 hPa | 0 mm | - | 360 W/m² | - |
| 1777907469 | 10° C | 47% | 1018.2 hPa | 0 mm | - | 272 W/m² | - |
| 1777907167 | 9.44° C | 48% | 1018 hPa | 0 mm | - | 203 W/m² | - |
| 1777906864 | 10° C | 49% | 1018 hPa | 0 mm | - | 247 W/m² | - |
| 1777906561 | 10° C | 51% | 1018.1 hPa | 0 mm | - | 357 W/m² | - |
| 1777906256 | 9.44° C | 50% | 1017.9 hPa | 0 mm | - | 179 W/m² | - |
| 1777905953 | 9.44° C | 53% | 1018.2 hPa | 0 mm | - | 263 W/m² | - |
| 1777905650 | 8.89° C | 51% | 1017.9 hPa | 0 mm | - | 242 W/m² | - |
| 1777905347 | 8.89° C | 52% | 1018.1 hPa | 0 mm | - | 148 W/m² | - |
| 1777905044 | 8.89° C | 51% | 1018 hPa | 0 mm | - | 163 W/m² | - |
| 1777904742 | 8.89° C | 52% | 1018.1 hPa | 0 mm | - | 161 W/m² | - |
| 1777904439 | 8.89° C | 53% | 1018.1 hPa | 0 mm | - | 116 W/m² | - |
| 1777904135 | 8.89° C | 56% | 1018.1 hPa | 0 mm | - | 134 W/m² | - |
| 1777903832 | 8.33° C | 58% | 1018.1 hPa | 0 mm | - | 138 W/m² | - |
| 1777903529 | 7.78° C | 56% | 1018.2 hPa | 0 mm | - | 116 W/m² | - |
| 1777903225 | 7.78° C | 58% | 1018 hPa | 0 mm | - | 104 W/m² | - |
| 1777902921 | 7.78° C | 58% | 1018 hPa | 0 mm | - | 96 W/m² | - |
| 1777902618 | 7.22° C | 57% | 1017.9 hPa | 0 mm | - | 89 W/m² | - |
| 1777902315 | 7.22° C | 60% | 1018 hPa | 0 mm | - | 81 W/m² | - |
| 1777902013 | 7.22° C | 59% | 1017.6 hPa | 0 mm | - | 72 W/m² | - |
| 1777901711 | 7.22° C | 59% | 1017.9 hPa | 0 mm | - | 65 W/m² | - |
| 1777901408 | 6.67° C | 59% | 1017.8 hPa | 0 mm | - | 60 W/m² | - |
| 1777901105 | 6.67° C | 60% | 1017.8 hPa | 0 mm | - | 59 W/m² | - |
* Rain latest hour (hover to see other rain measurements)
** Current wind speed in m/s (hover to see current wind gust speed)